Location: Eaton Estates
(41.3089°N, 82.0057°W)
Time: 16:57:57
(UTC+00:00)

Cosmos 1072 Rocket - Pass Details

Date: 17 June 2021
Orbit: 948 x 1009 km, 82.9° (Epoch: 02 August)

Event Time Altitude Azimuth Distance (km) Brightness Sun altitude
Rises 04:55:32 0° 351° (N) 3,748 9.0 -24.8°
Reaches altitude 10° 04:58:05 10° 350° (N) 2,790 8.0 -24.9°
Maximum altitude 05:04:30 79° 265° (W) 1,020 4.5 -25.1°
Enters shadow 05:05:56 56° 192° (SSW) 1,173 4.5 -25.1°
